Location: Castelbiague
(43.0361°N, 0.9246°E)
Time: 08:29:16
(UTC+00:00)

Cosmos 1184 Rocket - Pass Details

Date: 17 June 2021
Orbit: 399 x 414 km, 81.2° (Epoch: 26 July)

Event Time Altitude Azimuth Distance (km) Brightness Sun altitude
Exits shadow 23:22:01 48° 351° (N) 559 3.7 -23.1°
Drops below altitude 10° 23:24:30 10° 6° (N) 1,501 6.6 -23.1°
Sets 23:26:32 0° 9° (N) 2,368 7.8 -23.2°
